When you browse on this site, cookies collect data to enhance your experience and personalize the content and advertising you see.
Visit our Privacy Policy to learn more. By continuing to use the site, you agree to this use of cookies and data.

Tiempo cada hora Galapagar

Hoy, 18 Septiembre, Viernes

Tiempo Temperatura Precipitaciones Viento Presión Humedad
00:00 +19°C° 0 mm 3 mps 686 mmHg 75%
01:00 +19°C° 1 mm 3 mps 686 mmHg 75%
02:00 +19°C° 1 mm 3 mps 686 mmHg 75%
03:00 +18°C° 1 mm 4 mps 685 mmHg 74%
04:00 +18°C° 0.4 mm 4 mps 685 mmHg 76%
05:00 +18°C° 0.4 mm 4 mps 685 mmHg 78%
06:00 +17°C° 0.4 mm 4 mps 685 mmHg 80%
07:00 +18°C° 0.1 mm 4 mps 685 mmHg 74%
08:00 +18°C° 0.1 mm 4 mps 686 mmHg 69%
09:00 +19°C° 0.1 mm 4 mps 686 mmHg 64%
10:00 +20°C° 0.3 mm 5 mps 686 mmHg 61%
11:00 +20°C° 0.3 mm 5 mps 686 mmHg 59%
12:00 +21°C° 0.3 mm 5 mps 686 mmHg 57%
13:00 +20°C° 1.1 mm 5 mps 686 mmHg 59%
14:00 +20°C° 1.1 mm 5 mps 686 mmHg 62%
15:00 +20°C° 1.1 mm 5 mps 685 mmHg 64%
16:00 +19°C° 1.1 mm 4 mps 685 mmHg 66%
17:00 +19°C° 1.1 mm 3 mps 685 mmHg 68%
18:00 +18°C° 1.1 mm 2 mps 686 mmHg 69%
19:00 +18°C° 1 mm 3 mps 686 mmHg 72%
20:00 +17°C° 1 mm 3 mps 686 mmHg 74%
21:00 +17°C° 1 mm 4 mps 687 mmHg 77%
22:00 +17°C° 0.6 mm 4 mps 686 mmHg 79%
23:00 +15°C° 0.6 mm 5 mps 686 mmHg 81%

Mañana, 19 Septiembre, Sábado

Tiempo Temperatura Precipitaciones Viento Presión Humedad
00:00 +15°C° 0.6 mm 5 mps 686 mmHg 84%
01:00 +15°C° 0.3 mm 5 mps 686 mmHg 84%
02:00 +14°C° 0.3 mm 5 mps 686 mmHg 85%
03:00 +14°C° 0.3 mm 5 mps 686 mmHg 85%
04:00 +14°C° 0.1 mm 5 mps 686 mmHg 86%
05:00 +14°C° 0.1 mm 5 mps 686 mmHg 86%
06:00 +14°C° 0.1 mm 5 mps 686 mmHg 86%
07:00 +15°C° 0 mm 5 mps 687 mmHg 83%
08:00 +15°C° 0 mm 5 mps 687 mmHg 79%
09:00 +16°C° 0 mm 5 mps 688 mmHg 76%
10:00 +17°C° 0.1 mm 5 mps 688 mmHg 71%
11:00 +19°C° 0.1 mm 5 mps 688 mmHg 67%
12:00 +20°C° 0.1 mm 5 mps 688 mmHg 62%
13:00 +20°C° 0.1 mm 5 mps 688 mmHg 59%
14:00 +21°C° 0.1 mm 5 mps 688 mmHg 56%
15:00 +21°C° 0.1 mm 5 mps 688 mmHg 53%
16:00 +21°C° 0.1 mm 5 mps 688 mmHg 55%
17:00 +20°C° 0.1 mm 4 mps 688 mmHg 57%
18:00 +19°C° 0.1 mm 4 mps 688 mmHg 59%
19:00 +19°C° 0 mm 3 mps 689 mmHg 61%
20:00 +18°C° 0 mm 3 mps 689 mmHg 63%
21:00 +18°C° 0 mm 2 mps 689 mmHg 65%
22:00 +17°C° 0 mm 2 mps 689 mmHg 66%
23:00 +17°C° 0 mm 2 mps 689 mmHg 68%

Pasado mañana, 20 Septiembre, Domingo

Tiempo Temperatura Precipitaciones Viento Presión Humedad
00:00 +18°C° 0 mm 1 mps 689 mmHg 69%
01:00 +16°C° 0 mm 1 mps 689 mmHg 71%
02:00 +16°C° 0 mm 1 mps 689 mmHg 72%
03:00 +16°C° 0 mm 1 mps 689 mmHg 73%
04:00 +16°C° 0 mm 1 mps 689 mmHg 75%
05:00 +15°C° 0 mm 1 mps 689 mmHg 77%
06:00 +15°C° 0 mm 1 mps 689 mmHg 79%
07:00 +16°C° 0 mm 1 mps 689 mmHg 75%
08:00 +17°C° 0 mm 2 mps 690 mmHg 71%
09:00 +18°C° 0 mm 2 mps 690 mmHg 67%
10:00 +19°C° 0 mm 2 mps 690 mmHg 64%
11:00 +20°C° 0 mm 2 mps 690 mmHg 60%
12:00 +21°C° 0 mm 3 mps 690 mmHg 57%
13:00 +22°C° 0.1 mm 3 mps 690 mmHg 56%
14:00 +22°C° 0.1 mm 3 mps 689 mmHg 55%
15:00 +22°C° 0.1 mm 3 mps 689 mmHg 54%
16:00 +22°C° 0.2 mm 3 mps 689 mmHg 57%
17:00 +21°C° 0.2 mm 3 mps 689 mmHg 60%
18:00 +20°C° 0.2 mm 3 mps 688 mmHg 63%
19:00 +20°C° 0.2 mm 2 mps 689 mmHg 66%
20:00 +19°C° 0.2 mm 2 mps 689 mmHg 68%
21:00 +18°C° 0.2 mm 2 mps 689 mmHg 71%
22:00 +18°C° 0 mm 2 mps 689 mmHg 72%
23:00 +19°C° 0 mm 1 mps 689 mmHg 73%

21 Septiembre, Lunes

Tiempo Temperatura Precipitaciones Viento Presión Humedad
00:00 +18°C° 0 mm 1 mps 689 mmHg 74%
01:00 +18°C° 0 mm 1 mps 689 mmHg 75%
02:00 +18°C° 0 mm 1 mps 688 mmHg 76%
03:00 +18°C° 0 mm 1 mps 688 mmHg 76%
04:00 +16°C° 0 mm 1 mps 688 mmHg 79%
05:00 +16°C° 0 mm 1 mps 688 mmHg 81%
06:00 +16°C° 0 mm 1 mps 688 mmHg 84%
07:00 +17°C° 0 mm 2 mps 689 mmHg 79%
08:00 +18°C° 0 mm 2 mps 689 mmHg 73%
09:00 +19°C° 0 mm 2 mps 689 mmHg 68%
10:00 +20°C° 0 mm 3 mps 689 mmHg 62%
11:00 +21°C° 0 mm 3 mps 689 mmHg 56%
12:00 +22°C° 0 mm 4 mps 689 mmHg 49%
13:00 +22°C° 0.1 mm 4 mps 689 mmHg 47%
14:00 +22°C° 0.1 mm 4 mps 688 mmHg 45%
15:00 +22°C° 0.1 mm 4 mps 688 mmHg 43%
16:00 +21°C° 0.2 mm 3 mps 688 mmHg 46%
17:00 +21°C° 0.2 mm 3 mps 687 mmHg 50%
18:00 +20°C° 0.2 mm 2 mps 687 mmHg 53%
19:00 +19°C° 0 mm 2 mps 687 mmHg 56%
20:00 +19°C° 0 mm 2 mps 688 mmHg 60%
21:00 +18°C° 0 mm 2 mps 688 mmHg 63%
22:00 +18°C° 0.2 mm 2 mps 688 mmHg 65%
23:00 +17°C° 0.2 mm 2 mps 687 mmHg 66%

22 Septiembre, Martes

Tiempo Temperatura Precipitaciones Viento Presión Humedad
00:00 +17°C° 0.2 mm 2 mps 687 mmHg 68%
01:00 +18°C° 0.3 mm 1 mps 687 mmHg 70%
02:00 +16°C° 0.3 mm 1 mps 687 mmHg 72%
03:00 +16°C° 0.3 mm 1 mps 686 mmHg 74%
04:00 +16°C° 0.1 mm 1 mps 686 mmHg 74%
05:00 +15°C° 0.1 mm 1 mps 686 mmHg 74%
06:00 +15°C° 0.1 mm 1 mps 687 mmHg 75%
07:00 +16°C° 0.1 mm 1 mps 687 mmHg 70%
08:00 +18°C° 0.1 mm 1 mps 687 mmHg 65%
09:00 +20°C° 0.1 mm 1 mps 688 mmHg 61%
10:00 +21°C° 0.2 mm 1 mps 688 mmHg 56%
11:00 +22°C° 0.2 mm 1 mps 688 mmHg 51%
12:00 +23°C° 0.2 mm 1 mps 688 mmHg 47%
13:00 +23°C° 0.1 mm 2 mps 687 mmHg 45%
14:00 +23°C° 0.1 mm 2 mps 687 mmHg 44%
15:00 +23°C° 0.1 mm 2 mps 687 mmHg 43%
16:00 +23°C° 0.1 mm 2 mps 687 mmHg 45%
17:00 +22°C° 0.1 mm 1 mps 687 mmHg 48%
18:00 +22°C° 0.1 mm 1 mps 687 mmHg 50%
19:00 +21°C° 0 mm 1 mps 687 mmHg 53%
20:00 +20°C° 0 mm 1 mps 687 mmHg 55%
21:00 +20°C° 0 mm 1 mps 688 mmHg 58%
22:00 +19°C° 0 mm 1 mps 687 mmHg 59%
23:00 +19°C° 0 mm 1 mps 687 mmHg 61%

23 Septiembre, Miércoles

Tiempo Temperatura Precipitaciones Viento Presión Humedad
00:00 +19°C° 0 mm 1 mps 687 mmHg 62%
01:00 +18°C° 0 mm 1 mps 687 mmHg 63%
02:00 +18°C° 0 mm 1 mps 687 mmHg 64%
03:00 +18°C° 0 mm 1 mps 686 mmHg 65%
04:00 +16°C° 0 mm 1 mps 687 mmHg 66%
05:00 +16°C° 0 mm 1 mps 687 mmHg 66%
06:00 +16°C° 0 mm 1 mps 687 mmHg 67%
07:00 +18°C° 0 mm 1 mps 687 mmHg 63%
08:00 +19°C° 0 mm 1 mps 687 mmHg 60%
09:00 +20°C° 0 mm 1 mps 687 mmHg 56%
10:00 +21°C° 0.1 mm 1 mps 687 mmHg 54%
11:00 +21°C° 0.1 mm 1 mps 687 mmHg 52%
12:00 +21°C° 0.1 mm 2 mps 687 mmHg 50%
13:00 +21°C° 0.1 mm 2 mps 687 mmHg 52%
14:00 +20°C° 0.1 mm 2 mps 686 mmHg 54%
15:00 +20°C° 0.1 mm 3 mps 686 mmHg 56%
16:00 +19°C° 0 mm 2 mps 686 mmHg 57%
17:00 +19°C° 0 mm 2 mps 685 mmHg 58%
18:00 +19°C° 0 mm 2 mps 685 mmHg 59%
19:00 +18°C° 0 mm 2 mps 685 mmHg 61%
20:00 +18°C° 0 mm 2 mps 686 mmHg 63%
21:00 +18°C° 0 mm 2 mps 686 mmHg 65%
22:00 +17°C° 0 mm 2 mps 686 mmHg 67%
23:00 +16°C° 0 mm 2 mps 685 mmHg 70%
Mostrar más